Time,TemperatureF,DewpointF,PressureIn,WindDirection,WindDirectionDegrees,WindSpeedMPH,WindSpeedGustMPH,Humidity,HourlyPrecipIn,Conditions,Clouds,dailyrainin,SoftwareType,DateUTC
2013-01-14 00:05:00,65.1,61.8,30.12,SSE,163,3.0,5.0,89,0.00,,,0.00,Wunderground v.1.15,2013-01-14 05:05:00,
2013-01-14 00:15:00,65.1,61.8,30.12,South,184,2.0,5.0,89,0.00,,,0.00,Wunderground v.1.15,2013-01-14 05:15:00,
2013-01-14 00:20:00,65.2,61.9,30.12,South,169,3.0,5.0,89,0.00,,,0.00,Wunderground v.1.15,2013-01-14 05:20:00,
2013-01-14 00:30:00,65.4,62.1,30.12,SSE,163,4.0,4.0,89,0.00,,,0.00,Wunderground v.1.15,2013-01-14 05:30:00,
2013-01-14 00:40:00,65.5,61.9,30.12,SSE,166,4.0,4.0,88,0.00,,,0.00,Wunderground v.1.15,2013-01-14 05:40:00,
2013-01-14 00:50:00,65.6,61.9,30.13,South,180,4.0,4.0,88,0.00,,,0.00,Wunderground v.1.15,2013-01-14 05:50:00,
2013-01-14 01:00:00,65.7,61.7,30.12,South,175,4.0,5.0,87,0.00,,,0.00,Wunderground v.1.15,2013-01-14 06:00:00,
2013-01-14 01:10:00,65.8,61.8,30.12,SSE,156,4.0,4.0,87,0.00,,,0.00,Wunderground v.1.15,2013-01-14 06:10:00,
2013-01-14 01:20:00,65.9,61.9,30.12,SSW,192,5.0,5.0,87,0.00,,,0.00,Wunderground v.1.15,2013-01-14 06:20:00,
2013-01-14 01:30:00,65.8,61.8,30.12,SSE,160,3.0,8.0,87,0.00,,,0.00,Wunderground v.1.15,2013-01-14 06:30:00,
2013-01-14 01:35:00,65.8,61.8,30.13,SSW,195,3.0,8.0,87,0.00,,,0.00,Wunderground v.1.15,2013-01-14 06:35:00,
2013-01-14 01:45:00,65.7,61.7,30.13,South,177,2.0,3.0,87,0.00,,,0.00,Wunderground v.1.15,2013-01-14 06:45:00,
2013-01-14 01:50:00,65.6,61.6,30.13,SSE,156,2.0,5.0,87,0.00,,,0.00,Wunderground v.1.15,2013-01-14 06:50:00,
2013-01-14 02:00:00,65.6,61.6,30.13,SSW,192,3.0,3.0,87,0.00,,,0.00,Wunderground v.1.15,2013-01-14 07:00:00,
2013-01-14 02:05:00,65.6,61.6,30.13,South,179,3.0,3.0,87,0.00,,,0.00,Wunderground v.1.15,2013-01-14 07:05:00,
2013-01-14 02:15:00,65.4,61.4,30.13,South,171,3.0,3.0,87,0.00,,,0.00,Wunderground v.1.15,2013-01-14 07:15:00,
2013-01-14 02:25:00,65.2,61.6,30.12,South,183,3.0,4.0,88,0.00,,,0.00,Wunderground v.1.15,2013-01-14 07:25:00,
2013-01-14 02:35:00,65.0,61.4,30.13,SSE,164,4.0,5.0,88,0.00,,,0.00,Wunderground v.1.15,2013-01-14 07:35:00,
2013-01-14 02:45:00,64.8,61.2,30.13,SSE,164,4.0,5.0,88,0.00,,,0.00,Wunderground v.1.15,2013-01-14 07:45:00,
2013-01-14 02:55:00,64.5,61.2,30.13,SSE,155,3.0,4.0,89,0.00,,,0.00,Wunderground v.1.15,2013-01-14 07:55:00,
2013-01-14 03:00:00,64.4,61.1,30.13,SSE,167,3.0,4.0,89,0.00,,,0.00,Wunderground v.1.15,2013-01-14 08:00:00,
2013-01-14 03:10:00,64.5,61.2,30.12,SSE,164,4.0,4.0,89,0.00,,,0.00,Wunderground v.1.15,2013-01-14 08:10:00,
2013-01-14 03:15:00,64.4,61.1,30.12,SSE,157,3.0,4.0,89,0.00,,,0.00,Wunderground v.1.15,2013-01-14 08:15:00,
2013-01-14 03:20:00,64.3,61.3,30.12,South,170,3.0,3.0,90,0.00,,,0.00,Wunderground v.1.15,2013-01-14 08:20:00,
2013-01-14 03:30:00,64.1,61.1,30.11,South,174,3.0,4.0,90,0.00,,,0.00,Wunderground v.1.15,2013-01-14 08:30:00,
2013-01-14 03:40:00,64.1,61.4,30.11,SSE,168,3.0,3.0,91,0.00,,,0.00,Wunderground v.1.15,2013-01-14 08:40:00,
2013-01-14 03:50:00,63.9,61.2,30.11,SSE,160,3.0,4.0,91,0.00,,,0.00,Wunderground v.1.15,2013-01-14 08:50:00,
2013-01-14 03:55:00,63.7,61.0,30.10,SSE,155,3.0,4.0,91,0.00,,,0.00,Wunderground v.1.15,2013-01-14 08:55:00,
2013-01-14 04:00:00,63.6,60.9,30.10,South,171,3.0,5.0,91,0.00,,,0.00,Wunderground v.1.15,2013-01-14 09:00:00,
2013-01-14 04:10:00,63.6,61.2,30.10,South,184,4.0,4.0,92,0.00,,,0.00,Wunderground v.1.15,2013-01-14 09:10:00,
2013-01-14 04:15:00,63.7,61.3,30.10,SSE,165,4.0,5.0,92,0.00,,,0.00,Wunderground v.1.15,2013-01-14 09:15:00,
2013-01-14 04:25:00,63.5,61.1,30.10,South,184,4.0,4.0,92,0.00,,,0.00,Wunderground v.1.15,2013-01-14 09:25:00,
2013-01-14 04:30:00,63.5,61.1,30.10,SSE,161,3.0,3.0,92,0.00,,,0.00,Wunderground v.1.15,2013-01-14 09:30:00,
2013-01-14 04:40:00,63.5,61.1,30.10,SSE,160,4.0,4.0,92,0.00,,,0.00,Wunderground v.1.15,2013-01-14 09:40:00,
2013-01-14 04:45:00,63.5,61.1,30.10,South,169,4.0,4.0,92,0.00,,,0.00,Wunderground v.1.15,2013-01-14 09:45:00,
2013-01-14 04:55:00,63.4,61.0,30.10,SSE,156,3.0,5.0,92,0.00,,,0.00,Wunderground v.1.15,2013-01-14 09:55:00,
2013-01-14 05:05:00,63.3,60.9,30.10,SSE,163,4.0,4.0,92,0.00,,,0.00,Wunderground v.1.15,2013-01-14 10:05:00,
2013-01-14 05:10:00,63.2,60.8,30.10,South,175,3.0,3.0,92,0.00,,,0.00,Wunderground v.1.15,2013-01-14 10:10:00,
2013-01-14 05:15:00,63.2,61.1,30.10,SSE,153,3.0,4.0,93,0.00,,,0.00,Wunderground v.1.15,2013-01-14 10:15:00,
2013-01-14 05:25:00,63.1,61.0,30.10,SSE,167,4.0,4.0,93,0.00,,,0.00,Wunderground v.1.15,2013-01-14 10:25:00,
2013-01-14 05:35:00,63.2,61.1,30.10,SSE,165,4.0,6.0,93,0.00,,,0.00,Wunderground v.1.15,2013-01-14 10:35:00,
2013-01-14 05:45:00,63.2,61.1,30.10,SSE,165,4.0,5.0,93,0.00,,,0.00,Wunderground v.1.15,2013-01-14 10:45:00,
2013-01-14 05:55:00,63.3,61.2,30.10,South,176,4.0,4.0,93,0.00,,,0.00,Wunderground v.1.15,2013-01-14 10:55:00,
2013-01-14 06:05:00,63.5,61.4,30.11,South,185,4.0,5.0,93,0.00,,,0.00,Wunderground v.1.15,2013-01-14 11:05:00,
2013-01-14 06:15:00,63.5,61.4,30.11,South,175,5.0,5.0,93,0.00,,,0.00,Wunderground v.1.15,2013-01-14 11:15:00,
2013-01-14 06:25:00,63.6,61.5,30.11,SSW,195,4.0,5.0,93,0.00,,,0.00,Wunderground v.1.15,2013-01-14 11:25:00,
2013-01-14 06:35:00,63.7,61.6,30.12,South,188,4.0,4.0,93,0.00,,,0.00,Wunderground v.1.15,2013-01-14 11:35:00,
2013-01-14 06:45:00,63.8,61.7,30.12,South,188,5.0,5.0,93,0.00,,,0.00,Wunderground v.1.15,2013-01-14 11:45:00,
2013-01-14 06:55:00,63.8,61.7,30.12,South,171,4.0,5.0,93,0.00,,,0.00,Wunderground v.1.15,2013-01-14 11:55:00,
2013-01-14 07:05:00,63.8,61.7,30.13,SE,145,4.0,4.0,93,0.00,,,0.00,Wunderground v.1.15,2013-01-14 12:05:00,
2013-01-14 07:10:00,63.8,61.7,30.13,South,186,3.0,3.0,93,0.00,,,0.00,Wunderground v.1.15,2013-01-14 12:10:00,
2013-01-14 07:20:00,63.9,61.8,30.13,SSE,165,3.0,3.0,93,0.00,,,0.00,Wunderground v.1.15,2013-01-14 12:20:00,
2013-01-14 07:25:00,63.9,61.8,30.13,South,190,3.0,3.0,93,0.00,,,0.00,Wunderground v.1.15,2013-01-14 12:25:00,
2013-01-14 07:35:00,63.8,61.7,30.14,SW,225,3.0,6.0,93,0.00,,,0.00,Wunderground v.1.15,2013-01-14 12:35:00,
2013-01-14 07:40:00,63.8,62.0,30.14,South,178,3.0,3.0,94,0.00,,,0.00,Wunderground v.1.15,2013-01-14 12:40:00,
2013-01-14 07:45:00,63.8,62.0,30.14,SSW,205,3.0,3.0,94,0.00,,,0.00,Wunderground v.1.15,2013-01-14 12:45:00,
2013-01-14 07:55:00,64.0,62.2,30.14,SE,136,3.0,7.0,94,0.00,,,0.00,Wunderground v.1.15,2013-01-14 12:55:00,
2013-01-14 08:05:00,64.1,62.3,30.15,South,179,4.0,4.0,94,0.00,,,0.00,Wunderground v.1.15,2013-01-14 13:05:00,
2013-01-14 08:15:00,64.2,62.4,30.15,SSW,196,3.0,6.0,94,0.00,,,0.00,Wunderground v.1.15,2013-01-14 13:15:00,
2013-01-14 08:20:00,64.3,62.5,30.15,SW,229,4.0,4.0,94,0.00,,,0.00,Wunderground v.1.15,2013-01-14 13:20:00,
2013-01-14 08:30:00,64.4,62.6,30.15,South,169,4.0,4.0,94,0.00,,,0.00,Wunderground v.1.15,2013-01-14 13:30:00,
2013-01-14 08:40:00,64.8,63.0,30.15,South,178,4.0,5.0,94,0.00,,,0.00,Wunderground v.1.15,2013-01-14 13:40:00,
2013-01-14 08:50:00,65.4,63.3,30.15,SSE,163,6.0,7.0,93,0.00,,,0.00,Wunderground v.1.15,2013-01-14 13:50:00,
2013-01-14 09:00:00,65.8,63.4,30.16,SSW,207,6.0,10.0,92,0.00,,,0.00,Wunderground v.1.15,2013-01-14 14:00:00,
2013-01-14 09:10:00,65.8,63.4,30.17,SE,134,4.0,4.0,92,0.00,,,0.00,Wunderground v.1.15,2013-01-14 14:10:00,
2013-01-14 09:15:00,66.1,64.0,30.16,SSE,153,3.0,5.0,93,0.00,,,0.00,Wunderground v.1.15,2013-01-14 14:15:00,
2013-01-14 09:25:00,67.0,64.3,30.17,South,190,4.0,4.0,91,0.00,,,0.00,Wunderground v.1.15,2013-01-14 14:25:00,
2013-01-14 09:35:00,67.1,64.4,30.16,SSE,168,4.0,5.0,91,0.00,,,0.00,Wunderground v.1.15,2013-01-14 14:35:00,
2013-01-14 09:40:00,67.2,64.2,30.17,SSE,167,3.0,3.0,90,0.00,,,0.00,Wunderground v.1.15,2013-01-14 14:40:00,
2013-01-14 09:45:00,67.4,64.0,30.17,SSE,148,3.0,7.0,89,0.00,,,0.00,Wunderground v.1.15,2013-01-14 14:45:00,
2013-01-14 09:55:00,67.4,64.0,30.17,SSE,165,6.0,10.0,89,0.00,,,0.00,Wunderground v.1.15,2013-01-14 14:55:00,
2013-01-14 10:05:00,67.4,64.0,30.17,South,169,6.0,9.0,89,0.00,,,0.00,Wunderground v.1.15,2013-01-14 15:05:00,
2013-01-14 10:15:00,67.1,64.1,30.18,SSE,167,7.0,11.0,90,0.00,,,0.00,Wunderground v.1.15,2013-01-14 15:15:00,
2013-01-14 10:20:00,67.0,64.0,30.18,SSE,156,7.0,7.0,90,0.00,,,0.00,Wunderground v.1.15,2013-01-14 15:20:00,
2013-01-14 10:25:00,67.1,64.1,30.18,SSW,194,6.0,7.0,90,0.00,,,0.00,Wunderground v.1.15,2013-01-14 15:25:00,
2013-01-14 10:30:00,67.7,64.7,30.17,South,185,4.0,6.0,90,0.00,,,0.00,Wunderground v.1.15,2013-01-14 15:30:00,
2013-01-14 10:40:00,68.9,64.9,30.17,SE,129,6.0,6.0,87,0.00,,,0.00,Wunderground v.1.15,2013-01-14 15:40:00,
2013-01-14 10:50:00,68.9,64.5,30.17,South,184,6.0,6.0,86,0.00,,,0.00,Wunderground v.1.15,2013-01-14 15:50:00,
2013-01-14 10:55:00,69.5,64.8,30.17,SSE,159,6.0,7.0,85,0.00,,,0.00,Wunderground v.1.15,2013-01-14 15:55:00,
2013-01-14 11:05:00,70.2,64.8,30.16,SSW,211,5.0,6.0,83,0.00,,,0.00,Wunderground v.1.15,2013-01-14 16:05:00,
2013-01-14 11:15:00,71.5,65.4,30.16,South,186,5.0,6.0,81,0.00,,,0.00,Wunderground v.1.15,2013-01-14 16:15:00,
2013-01-14 11:25:00,71.8,64.9,30.15,South,182,4.0,12.0,79,0.00,,,0.00,Wunderground v.1.15,2013-01-14 16:25:00,
2013-01-14 11:35:00,73.2,65.6,30.14,SSE,161,4.0,6.0,77,0.00,,,0.00,Wunderground v.1.15,2013-01-14 16:35:00,
2013-01-14 11:40:00,73.1,65.1,30.14,SSE,148,6.0,6.0,76,0.00,,,0.00,Wunderground v.1.15,2013-01-14 16:40:00,
2013-01-14 11:50:00,72.7,65.1,30.13,South,191,5.0,14.0,77,0.00,,,0.00,Wunderground v.1.15,2013-01-14 16:50:00,
2013-01-14 12:00:00,72.6,65.3,30.13,WSW,257,4.0,5.0,78,0.00,,,0.00,Wunderground v.1.15,2013-01-14 17:00:00,
2013-01-14 12:10:00,73.9,65.1,30.12,SW,222,4.0,4.0,74,0.00,,,0.00,Wunderground v.1.15,2013-01-14 17:10:00,
2013-01-14 12:15:00,73.8,65.4,30.12,West,260,4.0,6.0,75,0.00,,,0.00,Wunderground v.1.15,2013-01-14 17:15:00,
2013-01-14 12:25:00,73.0,65.0,30.12,SE,146,6.0,11.0,76,0.00,,,0.00,Wunderground v.1.15,2013-01-14 17:25:00,
2013-01-14 12:35:00,73.9,65.1,30.11,SW,217,5.0,7.0,74,0.00,,,0.00,Wunderground v.1.15,2013-01-14 17:35:00,
2013-01-14 12:45:00,74.0,65.2,30.11,SSW,197,8.0,9.0,74,0.00,,,0.00,Wunderground v.1.15,2013-01-14 17:45:00,
2013-01-14 12:50:00,73.7,64.9,30.10,West,279,7.0,7.0,74,0.00,,,0.00,Wunderground v.1.15,2013-01-14 17:50:00,
2013-01-14 13:00:00,74.4,65.6,30.10,SSW,206,4.0,7.0,74,0.00,,,0.00,Wunderground v.1.15,2013-01-14 18:00:00,
2013-01-14 13:10:00,74.6,65.0,30.09,South,170,8.0,10.0,72,0.00,,,0.00,Wunderground v.1.15,2013-01-14 18:10:00,
2013-01-14 13:20:00,74.9,65.3,30.09,SSW,200,4.0,4.0,72,0.00,,,0.00,Wunderground v.1.15,2013-01-14 18:20:00,
2013-01-14 13:25:00,75.6,64.7,30.09,SE,140,6.0,13.0,69,0.00,,,0.00,Wunderground v.1.15,2013-01-14 18:25:00,
2013-01-14 13:35:00,75.7,64.8,30.09,SW,227,7.0,8.0,69,0.00,,,0.00,Wunderground v.1.15,2013-01-14 18:35:00,
2013-01-14 13:40:00,75.4,64.9,30.09,SW,214,6.0,6.0,70,0.00,,,0.00,Wunderground v.1.15,2013-01-14 18:40:00,
2013-01-14 13:50:00,76.1,65.2,30.09,SSW,200,4.0,5.0,69,0.00,,,0.00,Wunderground v.1.15,2013-01-14 18:50:00,
2013-01-14 13:55:00,76.7,65.3,30.08,South,180,3.0,5.0,68,0.00,,,0.00,Wunderground v.1.15,2013-01-14 18:55:00,
2013-01-14 14:00:00,77.0,64.8,30.09,SW,219,4.0,4.0,66,0.00,,,0.00,Wunderground v.1.15,2013-01-14 19:00:00,
2013-01-14 14:05:00,76.4,64.6,30.09,SSW,202,5.0,6.0,67,0.00,,,0.00,Wunderground v.1.15,2013-01-14 19:05:00,
2013-01-14 14:15:00,76.2,64.4,30.08,South,188,5.0,6.0,67,0.00,,,0.00,Wunderground v.1.15,2013-01-14 19:15:00,
2013-01-14 14:25:00,77.3,64.2,30.08,SSE,156,4.0,6.0,64,0.00,,,0.00,Wunderground v.1.15,2013-01-14 19:25:00,
2013-01-14 14:35:00,77.0,63.9,30.08,SW,229,6.0,7.0,64,0.00,,,0.00,Wunderground v.1.15,2013-01-14 19:35:00,
2013-01-14 14:45:00,76.4,63.8,30.08,SSW,192,6.0,7.0,65,0.00,,,0.00,Wunderground v.1.15,2013-01-14 19:45:00,
2013-01-14 14:50:00,76.3,63.7,30.09,SSE,161,7.0,7.0,65,0.00,,,0.00,Wunderground v.1.15,2013-01-14 19:50:00,
2013-01-14 15:00:00,76.4,63.8,30.09,SSE,165,6.0,6.0,65,0.00,,,0.00,Wunderground v.1.15,2013-01-14 20:00:00,
2013-01-14 15:05:00,76.4,63.8,30.09,SW,225,6.0,6.0,65,0.00,,,0.00,Wunderground v.1.15,2013-01-14 20:05:00,
2013-01-14 15:15:00,76.9,63.8,30.09,SSW,194,5.0,5.0,64,0.00,,,0.00,Wunderground v.1.15,2013-01-14 20:15:00,
2013-01-14 15:25:00,77.1,63.5,30.09,SSE,168,4.0,5.0,63,0.00,,,0.00,Wunderground v.1.15,2013-01-14 20:25:00,
2013-01-14 15:35:00,76.5,63.4,30.10,SSW,207,3.0,10.0,64,0.00,,,0.00,Wunderground v.1.15,2013-01-14 20:35:00,
2013-01-14 15:40:00,76.0,63.4,30.10,SE,137,5.0,5.0,65,0.00,,,0.00,Wunderground v.1.15,2013-01-14 20:40:00,
2013-01-14 15:45:00,75.8,63.2,30.10,South,184,5.0,5.0,65,0.00,,,0.00,Wunderground v.1.15,2013-01-14 20:45:00,
2013-01-14 15:55:00,75.4,63.2,30.10,South,188,4.0,7.0,66,0.00,,,0.00,Wunderground v.1.15,2013-01-14 20:55:00,
2013-01-14 16:05:00,74.8,63.1,30.10,West,277,4.0,5.0,67,0.00,,,0.00,Wunderground v.1.15,2013-01-14 21:05:00,
2013-01-14 16:15:00,74.4,63.6,30.11,WSW,244,2.0,5.0,69,0.00,,,0.00,Wunderground v.1.15,2013-01-14 21:15:00,
2013-01-14 16:25:00,74.0,63.2,30.11,South,173,2.0,3.0,69,0.00,,,0.00,Wunderground v.1.15,2013-01-14 21:25:00,
2013-01-14 16:35:00,73.7,63.3,30.11,South,173,2.0,3.0,70,0.00,,,0.00,Wunderground v.1.15,2013-01-14 21:35:00,
2013-01-14 16:45:00,73.4,63.4,30.11,SSE,165,2.0,2.0,71,0.00,,,0.00,Wunderground v.1.15,2013-01-14 21:45:00,
2013-01-14 16:55:00,73.0,63.4,30.11,SSE,167,2.0,2.0,72,0.00,,,0.00,Wunderground v.1.15,2013-01-14 21:55:00,
2013-01-14 17:00:00,73.0,63.0,30.11,SSW,201,3.0,4.0,71,0.00,,,0.00,Wunderground v.1.15,2013-01-14 22:00:00,
2013-01-14 17:05:00,73.0,63.4,30.12,South,180,3.0,5.0,72,0.00,,,0.00,Wunderground v.1.15,2013-01-14 22:05:00,
2013-01-14 17:15:00,72.7,62.8,30.13,South,187,2.0,3.0,71,0.00,,,0.00,Wunderground v.1.15,2013-01-14 22:15:00,
2013-01-14 17:20:00,72.5,63.0,30.13,South,188,1.0,1.0,72,0.00,,,0.00,Wunderground v.1.15,2013-01-14 22:20:00,
2013-01-14 17:30:00,71.9,63.2,30.13,South,187,0.0,0.0,74,0.00,,,0.00,Wunderground v.1.15,2013-01-14 22:30:00,
2013-01-14 17:35:00,71.5,63.2,30.13,South,187,0.0,0.0,75,0.00,,,0.00,Wunderground v.1.15,2013-01-14 22:35:00,
2013-01-14 17:45:00,70.6,63.0,30.14,South,188,0.0,1.0,77,0.00,,,0.00,Wunderground v.1.15,2013-01-14 22:45:00,
2013-01-14 17:55:00,69.6,62.8,30.14,South,188,0.0,0.0,79,0.00,,,0.00,Wunderground v.1.15,2013-01-14 22:55:00,
2013-01-14 18:05:00,68.8,62.7,30.14,South,188,0.0,0.0,81,0.00,,,0.00,Wunderground v.1.15,2013-01-14 23:05:00,
2013-01-14 18:10:00,68.4,62.7,30.15,South,188,0.0,0.0,82,0.00,,,0.00,Wunderground v.1.15,2013-01-14 23:10:00,
2013-01-14 18:20:00,67.7,62.3,30.14,South,188,0.0,0.0,83,0.00,,,0.00,Wunderground v.1.15,2013-01-14 23:20:00,
2013-01-14 18:25:00,67.3,62.3,30.15,South,188,0.0,0.0,84,0.00,,,0.00,Wunderground v.1.15,2013-01-14 23:25:00,
2013-01-14 18:35:00,66.7,62.4,30.15,South,188,0.0,0.0,86,0.00,,,0.00,Wunderground v.1.15,2013-01-14 23:35:00,
2013-01-14 18:40:00,66.3,62.0,30.15,South,188,0.0,0.0,86,0.00,,,0.00,Wunderground v.1.15,2013-01-14 23:40:00,
2013-01-14 18:50:00,65.6,61.6,30.15,South,188,0.0,0.0,87,0.00,,,0.00,Wunderground v.1.15,2013-01-14 23:50:00,
2013-01-14 19:00:00,65.0,61.4,30.15,South,187,0.0,0.0,88,0.00,,,0.00,Wunderground v.1.15,2013-01-15 00:00:00,
2013-01-14 19:05:00,64.8,61.5,30.14,South,187,0.0,0.0,89,0.00,,,0.00,Wunderground v.1.15,2013-01-15 00:05:00,
2013-01-14 19:10:00,64.5,61.2,30.14,South,188,0.0,0.0,89,0.00,,,0.00,Wunderground v.1.15,2013-01-15 00:10:00,
2013-01-14 19:20:00,64.0,61.0,30.14,South,188,0.0,0.0,90,0.00,,,0.00,Wunderground v.1.15,2013-01-15 00:20:00,
2013-01-14 19:25:00,63.8,60.8,30.14,South,187,0.0,0.0,90,0.00,,,0.00,Wunderground v.1.15,2013-01-15 00:25:00,
2013-01-14 19:35:00,63.2,60.5,30.14,South,188,0.0,0.0,91,0.00,,,0.00,Wunderground v.1.15,2013-01-15 00:35:00,
2013-01-14 19:45:00,62.7,60.0,30.13,South,187,0.0,0.0,91,0.00,,,0.00,Wunderground v.1.15,2013-01-15 00:45:00,
2013-01-14 19:50:00,62.5,60.1,30.13,South,187,0.0,0.0,92,0.00,,,0.00,Wunderground v.1.15,2013-01-15 00:50:00,
2013-01-14 19:55:00,62.4,60.0,30.13,South,188,0.0,0.0,92,0.00,,,0.00,Wunderground v.1.15,2013-01-15 00:55:00,
2013-01-14 20:05:00,62.4,60.3,30.13,South,188,0.0,0.0,93,0.00,,,0.00,Wunderground v.1.15,2013-01-15 01:05:00,
2013-01-14 20:15:00,63.0,60.9,30.13,SSE,167,1.0,1.0,93,0.00,,,0.00,Wunderground v.1.15,2013-01-15 01:15:00,
2013-01-14 20:25:00,63.1,60.7,30.14,South,171,0.0,1.0,92,0.00,,,0.00,Wunderground v.1.15,2013-01-15 01:25:00,
2013-01-14 20:30:00,63.1,60.7,30.14,South,171,0.0,0.0,92,0.00,,,0.00,Wunderground v.1.15,2013-01-15 01:30:00,
2013-01-14 20:40:00,64.2,61.5,30.13,South,185,2.0,2.0,91,0.00,,,0.00,Wunderground v.1.15,2013-01-15 01:40:00,
2013-01-14 20:45:00,64.8,61.8,30.13,SSE,163,2.0,2.0,90,0.00,,,0.00,Wunderground v.1.15,2013-01-15 01:45:00,
2013-01-14 20:50:00,64.8,61.5,30.13,South,169,2.0,2.0,89,0.00,,,0.00,Wunderground v.1.15,2013-01-15 01:50:00,
2013-01-14 21:00:00,65.3,61.7,30.13,South,170,3.0,3.0,88,0.00,,,0.00,Wunderground v.1.15,2013-01-15 02:00:00,
2013-01-14 21:05:00,65.7,61.7,30.13,South,173,3.0,4.0,87,0.00,,,0.00,Wunderground v.1.15,2013-01-15 02:05:00,
2013-01-14 21:10:00,65.8,61.8,30.13,SSE,166,3.0,4.0,87,0.00,,,0.00,Wunderground v.1.15,2013-01-15 02:10:00,
2013-01-14 21:20:00,66.3,62.0,30.13,SSE,153,3.0,4.0,86,0.00,,,0.00,Wunderground v.1.15,2013-01-15 02:20:00,
2013-01-14 21:25:00,66.7,62.0,30.12,South,171,4.0,5.0,85,0.00,,,0.00,Wunderground v.1.15,2013-01-15 02:25:00,
2013-01-14 21:30:00,66.8,61.8,30.13,SSW,205,4.0,5.0,84,0.00,,,0.00,Wunderground v.1.15,2013-01-15 02:30:00,
2013-01-14 21:35:00,66.8,61.8,30.13,SSE,165,4.0,5.0,84,0.00,,,0.00,Wunderground v.1.15,2013-01-15 02:35:00,
2013-01-14 21:45:00,67.0,61.7,30.13,South,171,4.0,6.0,83,0.00,,,0.00,Wunderground v.1.15,2013-01-15 02:45:00,
2013-01-14 21:55:00,67.0,61.7,30.13,SSW,192,4.0,4.0,83,0.00,,,0.00,Wunderground v.1.15,2013-01-15 02:55:00,
2013-01-14 22:05:00,66.9,61.6,30.13,SW,219,3.0,3.0,83,0.00,,,0.00,Wunderground v.1.15,2013-01-15 03:05:00,
2013-01-14 22:10:00,66.8,61.8,30.13,South,171,3.0,3.0,84,0.00,,,0.00,Wunderground v.1.15,2013-01-15 03:10:00,
2013-01-14 22:20:00,66.7,61.7,30.13,SSE,167,3.0,3.0,84,0.00,,,0.00,Wunderground v.1.15,2013-01-15 03:20:00,
2013-01-14 22:25:00,66.6,61.6,30.13,SE,141,3.0,4.0,84,0.00,,,0.00,Wunderground v.1.15,2013-01-15 03:25:00,
2013-01-14 22:30:00,66.5,61.5,30.13,South,175,4.0,4.0,84,0.00,,,0.00,Wunderground v.1.15,2013-01-15 03:30:00,
2013-01-14 22:40:00,66.4,61.4,30.13,SSE,164,4.0,4.0,84,0.00,,,0.00,Wunderground v.1.15,2013-01-15 03:40:00,
2013-01-14 22:45:00,66.5,61.5,30.13,South,172,4.0,4.0,84,0.00,,,0.00,Wunderground v.1.15,2013-01-15 03:45:00,
2013-01-14 22:55:00,66.6,61.6,30.13,South,179,4.0,4.0,84,0.00,,,0.00,Wunderground v.1.15,2013-01-15 03:55:00,
2013-01-14 23:00:00,66.7,61.7,30.13,South,186,5.0,5.0,84,0.00,,,0.00,Wunderground v.1.15,2013-01-15 04:00:00,
2013-01-14 23:10:00,66.7,61.7,30.13,South,179,4.0,7.0,84,0.00,,,0.00,Wunderground v.1.15,2013-01-15 04:10:00,
2013-01-14 23:15:00,66.7,61.7,30.13,South,171,5.0,7.0,84,0.00,,,0.00,Wunderground v.1.15,2013-01-15 04:15:00,
2013-01-14 23:21:00,66.7,61.7,30.13,South,191,4.0,6.0,84,0.00,,,0.00,Wunderground v.1.15,2013-01-15 04:21:00,
2013-01-14 23:30:00,66.6,61.6,30.13,SSW,192,3.0,6.0,84,0.00,,,0.00,Wunderground v.1.15,2013-01-15 04:30:00,
2013-01-14 23:40:00,66.5,61.2,30.14,SSE,161,4.0,4.0,83,0.00,,,0.00,Wunderground v.1.15,2013-01-15 04:40:00,
2013-01-14 23:50:00,66.4,61.4,30.14,SSE,168,3.0,4.0,84,0.00,,,0.00,Wunderground v.1.15,2013-01-15 04:50:00,